Sigfox identifier Datetime Temperature Humidity SNR
003A5480 2019-04-23 15:12:07 16.2 33 19.9
003A5480 2019-04-23 14:38:35 16.2 33 20
003A5480 2019-04-23 14:05:04 16 32 20.1
003A5480 2019-04-23 13:31:31 16 32 19.8
003A5480 2019-04-23 12:58:00 15.8 32 20
003A5480 2019-04-23 12:24:28 15.7 32 19.8
003A5480 2019-04-23 11:50:56 15.7 32 20
003A5480 2019-04-23 11:17:25 15.6 32 19.8
003A5480 2019-04-23 10:43:53 15.6 32 19.6
003A5480 2019-04-23 10:10:22 15.6 32 19.2
003A5480 2019-04-23 09:36:50 15.6 32 19.2
003A5480 2019-04-23 09:03:19 15.5 32 19.2
003A5480 2019-04-23 08:29:48 15.6 32 19.2
003A5480 2019-04-23 07:56:16 15.6 32 19
003A5480 2019-04-23 07:22:44 15.6 32 19.2
003A5480 2019-04-23 06:49:13 15.6 32 19.3
003A5480 2019-04-23 06:15:41 15.6 32 19.4
003A5480 2019-04-23 05:42:10 15.6 32 19.5
003A5480 2019-04-23 05:08:39 15.5 32 19.6
003A5480 2019-04-23 04:35:08 15.6 32 19.7
003A5480 2019-04-23 04:01:37 15.6 32 19.8
003A5480 2019-04-23 03:28:06 15.6 32 19.8
003A5480 2019-04-23 02:54:35 15.6 32 19.7
003A5480 2019-04-23 02:21:03 15.6 32 19.7
003A5480 2019-04-23 01:47:32 15.7 32 19.6
003A5480 2019-04-23 01:13:59 15.7 32 19.7
003A5480 2019-04-23 00:40:28 15.7 32 19.8
003A5480 2019-04-23 00:06:55 15.8 32 19.8
003A5480 2019-04-22 23:33:22 15.8 32 20
003A5480 2019-04-22 22:59:50 15.7 32 20
003A5480 2019-04-22 22:26:20 15.8 31 20
003A5480 2019-04-22 21:52:49 15.8 31 19.9
003A5480 2019-04-22 21:19:17 15.8 31 19.9
003A5480 2019-04-22 20:45:47 15.9 31 19.9
003A5480 2019-04-22 20:12:15 15.9 31 20
003A5480 2019-04-22 19:38:43 15.8 31 19.9
003A5480 2019-04-22 19:05:12 15.9 31 19.8
003A5480 2019-04-22 18:31:40 15.8 31 19.6
003A5480 2019-04-22 17:58:08 15.9 31 19.5
003A5480 2019-04-22 17:24:36 15.8 31 19.4
003A5480 2019-04-22 16:51:05 15.8 31 19.3
003A5480 2019-04-22 16:17:33 15.8 31 19.2
003A5480 2019-04-22 15:44:01 15.8 31 19.2
003A5480 2019-04-22 15:10:31 15.7 31 19.2
003A5480 2019-04-22 14:36:59 15.7 31 19
003A5480 2019-04-22 14:03:28 15.6 31 18.9
003A5480 2019-04-22 13:29:57 15.7 31 18.9
003A5480 2019-04-22 12:56:25 15.6 31 19.1
003A5480 2019-04-22 12:22:53 15.6 31 19.1
003A5480 2019-04-22 11:49:21 15.6 31 19.1
003A5480 2019-04-22 11:15:50 15.6 31 19.1
003A5480 2019-04-22 10:42:19 15.6 31 19.2
003A5480 2019-04-22 10:08:48 15.6 31 20.7
003A5480 2019-04-22 09:35:17 15.5 31 20.7
003A5480 2019-04-22 09:01:46 15.5 31 20.7
003A5480 2019-04-22 08:28:14 15.5 31 20.8
003A5480 2019-04-22 07:54:42 15.6 31 20.8
003A5480 2019-04-22 07:21:11 15.6 31 20.8
003A5480 2019-04-22 06:47:40 15.6 31 20.8
003A5480 2019-04-22 06:14:10 15.6 31 20.9
003A5480 2019-04-22 05:40:39 15.6 31 20.8
003A5480 2019-04-22 05:07:08 15.6 31 20.9
003A5480 2019-04-22 04:33:37 15.6 31 21
003A5480 2019-04-22 04:00:06 15.6 31 21
003A5480 2019-04-22 03:26:36 15.6 31 21.1
003A5480 2019-04-22 02:53:06 15.6 31 21.1
003A5480 2019-04-22 02:19:35 15.5 31 21.2
003A5480 2019-04-22 01:46:04 15.6 31 21.2
003A5480 2019-04-22 01:12:34 15.6 31 21.2
003A5480 2019-04-22 00:39:05 15.5 31 21.3
003A5480 2019-04-22 00:05:35 15.6 31 21.3
003A5480 2019-04-21 23:32:06 15.5 31 21.4
003A5480 2019-04-21 22:58:36 15.5 31 21.4
003A5480 2019-04-21 22:25:06 15.5 31 21.5
003A5480 2019-04-21 21:51:37 15.5 31 21.4
003A5480 2019-04-21 21:18:07 15.5 31 21.3
003A5480 2019-04-21 20:44:38 15.5 31 21.2
003A5480 2019-04-21 20:11:09 15.5 30 19.8
003A5480 2019-04-21 19:37:40 15.5 30 19.8
003A5480 2019-04-21 19:04:10 15.5 30 19.7
003A5480 2019-04-21 18:30:40 15.5 30 19.7
003A5480 2019-04-21 17:57:09 15.4 30 19.5
003A5480 2019-04-21 17:23:39 15.4 30 19.5
003A5480 2019-04-21 16:50:07 15.4 30 19.5
003A5480 2019-04-21 16:16:37 15.5 30 19.2
003A5480 2019-04-21 15:43:08 15.4 30 19.4
003A5480 2019-04-21 15:09:38 15.4 30 19.3
003A5480 2019-04-21 14:36:08 15.4 30 19.3
003A5480 2019-04-21 14:02:39 15.4 30 19.1
003A5480 2019-04-21 13:29:10 15.3 30 19.2
003A5480 2019-04-21 12:55:40 15.4 30 19.2
003A5480 2019-04-21 12:22:11 15.4 30 19.1
003A5480 2019-04-21 11:48:41 15.4 30 19.1
003A5480 2019-04-21 11:15:12 15.5 30 19.1
003A5480 2019-04-21 10:41:41 15.5 30 19
003A5480 2019-04-21 10:08:11 15.5 30 19
003A5480 2019-04-21 09:34:39 15.6 30 19
003A5480 2019-04-21 09:01:09 15.6 30 19
003A5480 2019-04-21 08:27:37 15.6 30 19
003A5480 2019-04-21 07:54:06 15.6 30 19.1
003A5480 2019-04-21 07:20:35 15.6 30 19.3
003A5480 2019-04-21 06:47:04 15.6 30 19.3
003A5480 2019-04-21 06:13:33 15.6 30 19.3
003A5480 2019-04-21 05:40:03 15.6 30 19.3
003A5480 2019-04-21 05:06:33 15.6 30 19.2
003A5480 2019-04-21 04:33:02 15.6 30 19.2
003A5480 2019-04-21 03:59:31 15.5 30 19.2
003A5480 2019-04-21 03:26:01 15.6 30 19.2
003A5480 2019-04-21 02:52:31 15.6 30 19.7
003A5480 2019-04-21 02:19:00 15.5 30 19.6
003A5480 2019-04-21 01:45:29 15.6 30 19.7
003A5480 2019-04-21 01:12:00 15.5 30 19.7
003A5480 2019-04-21 00:38:30 15.6 30 20
003A5480 2019-04-21 00:05:00 15.6 30 20
003A5480 2019-04-20 23:31:29 15.5 30 20
003A5480 2019-04-20 22:57:59 15.6 30 20
003A5480 2019-04-20 22:24:29 15.5 30 20
003A5480 2019-04-20 21:51:00 15.6 30 20.1
003A5480 2019-04-20 21:17:31 15.6 29 20.1
003A5480 2019-04-20 20:44:01 15.6 29 20.1
003A5480 2019-04-20 20:10:31 15.5 29 20
003A5480 2019-04-20 19:37:01 15.6 29 19.9
003A5480 2019-04-20 19:03:31 15.6 29 19.9
003A5480 2019-04-20 18:30:00 15.6 29 19.8
003A5480 2019-04-20 17:56:30 15.6 29 19.8
003A5480 2019-04-20 17:22:59 15.5 29 19.8
003A5480 2019-04-20 16:49:28 15.6 29 19.8
003A5480 2019-04-20 16:15:58 15.6 29 19.8
003A5480 2019-04-20 15:42:27 15.5 29 19.9
003A5480 2019-04-20 15:08:57 15.6 29 20
003A5480 2019-04-20 14:35:27 15.5 29 19.9
003A5480 2019-04-20 14:01:58 15.6 29 19.9
003A5480 2019-04-20 13:28:29 15.6 29 19.8
003A5480 2019-04-20 12:54:59 15.6 29 19.6
003A5480 2019-04-20 12:21:30 15.6 29 19.7
003A5480 2019-04-20 11:47:59 15.6 29 19.6
003A5480 2019-04-20 11:14:30 15.6 29 19.4
003A5480 2019-04-20 10:41:00 15.5 29 19.4
003A5480 2019-04-20 10:07:29 15.6 29 19.5
003A5480 2019-04-20 09:33:58 15.6 29 19.5
003A5480 2019-04-20 09:00:29 15.6 29 19.4
003A5480 2019-04-20 08:26:58 15.7 29 19.5
003A5480 2019-04-20 07:53:27 15.8 29 19.5
003A5480 2019-04-20 07:19:56 15.7 29 19.6
003A5480 2019-04-20 06:46:25 15.7 29 19.8
003A5480 2019-04-20 06:12:55 15.8 29 19.8
003A5480 2019-04-20 05:39:25 15.8 29 19.8
003A5480 2019-04-20 05:05:56 15.7 29 19.9
003A5480 2019-04-20 04:32:26 15.7 28 19.9
003A5480 2019-04-20 03:58:57 15.8 28 20
003A5480 2019-04-20 03:25:25 15.8 28 19.9
003A5480 2019-04-20 02:51:55 15.9 28 19.9
003A5480 2019-04-20 02:18:24 15.9 28 19.9
003A5480 2019-04-20 01:44:52 16 28 19.8
003A5480 2019-04-20 01:11:21 16 28 19.9
003A5480 2019-04-20 00:37:49 16 28 19.9
003A5480 2019-04-20 00:04:18 16 28 19.9
003A5480 2019-04-19 23:30:47 16 28 20
003A5480 2019-04-19 22:57:16 16 28 20
003A5480 2019-04-19 22:23:43 16 28 20.1
003A5480 2019-04-19 21:50:12 16 28 20.2
003A5480 2019-04-19 21:16:41 16 28 20.1
003A5480 2019-04-19 20:43:10 16.1 28 20
003A5480 2019-04-19 20:09:38 16 28 20
003A5480 2019-04-19 19:36:07 16.1 28 19.9
003A5480 2019-04-19 19:02:36 16.1 28 19.9
003A5480 2019-04-19 18:29:06 16.1 28 19.8
003A5480 2019-04-19 17:55:36 16 28 19.8
003A5480 2019-04-19 17:22:06 16 28 19.8
003A5480 2019-04-19 16:48:36 16 28 19.8
003A5480 2019-04-19 16:15:05 16 28 19.7
003A5480 2019-04-19 15:41:35 16 28 19.6
003A5480 2019-04-19 15:08:05 15.9 28 19.7
003A5480 2019-04-19 14:34:36 15.9 28 19.7
003A5480 2019-04-19 14:01:07 15.8 28 19.7
003A5480 2019-04-19 13:27:36 15.8 28 19.7
003A5480 2019-04-19 12:54:07 15.8 28 19.7
003A5480 2019-04-19 12:20:36 15.8 28 19.7
003A5480 2019-04-19 11:47:05 15.8 28 19.7
003A5480 2019-04-19 11:13:37 15.8 28 19.7
003A5480 2019-04-19 10:40:06 15.8 28 19.8
003A5480 2019-04-19 10:06:36 15.8 28 19.9
003A5480 2019-04-19 09:33:05 15.8 27 20
003A5480 2019-04-19 08:59:36 15.8 27 20.2
003A5480 2019-04-19 08:26:06 15.8 27 20.3
003A5480 2019-04-19 07:52:36 15.8 27 20.4
003A5480 2019-04-19 07:19:06 15.9 27 20.5
003A5480 2019-04-19 06:45:37 15.9 27 20.6
003A5480 2019-04-19 06:12:07 16 27 20.7
003A5480 2019-04-19 05:38:37 16 27 21
003A5480 2019-04-19 05:05:07 16 27 21.1
003A5480 2019-04-19 04:31:40 16 27 21.2
003A5480 2019-04-19 03:58:10 16 27 21.1
003A5480 2019-04-19 03:24:40 16.1 27 21.2
003A5480 2019-04-19 02:51:11 16 27 21.3
003A5480 2019-04-19 02:17:41 16.2 27 21.2
003A5480 2019-04-19 01:44:11 16.2 27 21.3
003A5480 2019-04-19 01:10:41 16.2 27 21.2
003A5480 2019-04-19 00:37:11 16.4 27 21.3
003A5480 2019-04-19 00:03:42 16.4 27 21.4
003A5480 2019-04-18 23:30:11 16.4 27 21.4
003A5480 2019-04-18 22:56:41 16.5 27 21.6
003A5480 2019-04-18 22:23:12 16.6 27 21.6
003A5480 2019-04-18 21:49:41 16.6 27 21.7
003A5480 2019-04-18 21:16:11 16.6 27 21.6
003A5480 2019-04-18 20:42:40 16.6 27 21.5
003A5480 2019-04-18 20:09:08 16.6 27 21.4
003A5480 2019-04-18 19:35:37 16.6 27 21.4
003A5480 2019-04-18 18:28:34 16.6 27 21
003A5480 2019-04-18 17:55:04 16.4 27 20.9
003A5480 2019-04-18 17:21:34 16.4 27 20.8
003A5480 2019-04-18 16:48:03 16.4 27 20.7
003A5480 2019-04-18 16:14:32 16.4 27 20.7
003A5480 2019-04-18 15:41:02 16.4 27 20.4
003A5480 2019-04-18 15:07:32 16.3 27 20.3
003A5480 2019-04-18 14:34:01 16.2 27 20.2
003A5480 2019-04-18 14:00:32 16.2 27 20.3
003A5480 2019-04-18 13:27:01 16.2 27 20.2
003A5480 2019-04-18 12:53:30 16.2 26 20
003A5480 2019-04-18 12:19:59 16.2 26 20.1
003A5480 2019-04-18 11:46:27 16.2 26 20
003A5480 2019-04-18 11:12:57 16.2 26 20.1
003A5480 2019-04-18 10:39:25 16.2 26 19.8
003A5480 2019-04-18 10:05:53 16.1 26 19.8
003A5480 2019-04-18 09:32:23 16.2 26 19.9
003A5480 2019-04-18 08:58:52 16.2 26 19.6
003A5480 2019-04-18 08:25:21 16.3 26 19.6
003A5480 2019-04-18 07:51:50 16.3 26 19.6
003A5480 2019-04-18 07:18:19 16.2 26 19.7
003A5480 2019-04-18 06:44:47 16.2 26 19.9
003A5480 2019-04-18 06:11:16 16.2 26 20
003A5480 2019-04-18 05:37:44 16.2 26 20
003A5480 2019-04-18 05:04:13 16.3 26 20
003A5480 2019-04-18 04:30:42 16.2 26 21.3
003A5480 2019-04-18 03:57:10 16.2 26 21.4
003A5480 2019-04-18 03:23:38 16.2 26 21.5
003A5480 2019-04-18 02:50:07 16.3 26 21.5
003A5480 2019-04-18 02:16:35 16.4 25 21.5
003A5480 2019-04-18 01:43:03 16.4 25 21.5
003A5480 2019-04-18 01:09:31 16.5 25 21.5
003A5480 2019-04-18 00:36:00 16.7 25 21.5
003A5480 2019-04-18 00:02:29 16.6 26 21.6
003A5480 2019-04-17 23:28:58 16.7 26 21.6
003A5480 2019-04-17 22:55:27 16.7 25 21.6
003A5480 2019-04-17 22:21:57 16.6 26 21.6
003A5480 2019-04-17 21:48:27 16.7 25 21.5
003A5480 2019-04-17 21:14:57 16.6 25 21.6
003A5480 2019-04-17 20:41:28 16.6 25 21.7
003A5480 2019-04-17 20:07:57 16.6 25 21.7
003A5480 2019-04-17 19:34:28 16.6 25 21.7
003A5480 2019-04-17 19:00:58 16.6 25 21.8
003A5480 2019-04-17 18:27:29 16.6 25 21.8
003A5480 2019-04-17 17:53:59 16.6 25 21.8
003A5480 2019-04-17 17:20:29 16.6 25 21.8
003A5480 2019-04-17 16:46:59 16.6 25 21.8
003A5480 2019-04-17 16:13:29 16.5 24 21.7
003A5480 2019-04-17 15:39:59 16.6 24 21.7
003A5480 2019-04-17 15:06:31 16.6 24 21.9
003A5480 2019-04-17 14:32:55 16.7 24 20.7
003A5480 2019-04-17 13:59:24 16.8 24 20.7
003A5480 2019-04-17 12:52:22 16.8 24 20.8
003A5480 2019-04-17 12:18:49 16.8 24 20.7
003A5480 2019-04-17 11:45:17 16.8 24 20.6
003A5480 2019-04-17 11:11:46 16.8 24 20.5
003A5480 2019-04-17 10:38:13 16.8 24 20.5
003A5480 2019-04-17 10:04:43 16.9 23 20.4
003A5480 2019-04-17 09:31:10 16.9 23 20.1
003A5480 2019-04-17 08:57:38 17.1 23 19.9
003A5480 2019-04-17 08:24:07 17.3 23 19.9
003A5480 2019-04-17 07:50:35 17.5 23 19.9
003A5480 2019-04-17 07:17:05 17.6 23 19.8
003A5480 2019-04-17 06:43:34 17.7 23 19.7
003A5480 2019-04-17 06:10:04 17.8 23 19.9
003A5480 2019-04-17 05:36:33 17.9 23 19.9
003A5480 2019-04-17 05:03:02 18 23 19.8
003A5480 2019-04-17 04:29:31 17.9 23 19.5
003A5480 2019-04-17 03:56:01 18 23 19.4
003A5480 2019-04-17 03:22:31 18 23 19.1
003A5480 2019-04-17 02:49:02 18.1 23 18.9
003A5480 2019-04-17 02:15:33 18.2 23 18.7
003A5480 2019-04-17 01:42:02 18.1 23 18.3
003A5480 2019-04-17 01:08:32 18.1 23 18.1
003A5480 2019-04-17 00:35:01 18.1 23 17.9
003A5480 2019-04-17 00:01:29 18 23 18
003A5480 2019-04-16 23:27:58 17.9 22 18.3
003A5480 2019-04-16 22:54:27 18.2 22 18.1
003A5480 2019-04-16 22:20:56 18.6 22 18.5
003A5480 2019-04-16 21:47:24 18.8 22 18.5
003A5480 2019-04-16 21:13:54 19 22 18.7
003A5480 2019-04-16 20:40:22 19 23 19
003A5480 2019-04-16 20:06:50 19.2 23 19.3
003A5480 2019-04-16 19:33:19 19.2 23 19.3
003A5480 2019-04-16 18:59:48 19.2 22 19.6
003A5480 2019-04-16 18:26:18 19.4 22 19.8
003A5480 2019-04-16 17:52:46 19.4 22 19.8
003A5480 2019-04-16 17:19:18 19.6 22 20
003A5480 2019-04-16 16:45:46 19.8 22 20.3
003A5480 2019-04-16 16:12:18 19.9 22 19.8
003A5480 2019-04-16 15:38:48 20.1 22 19.8
003A5480 2019-04-16 15:05:17 20.5 22 19.9
003A5480 2019-04-16 14:31:51 21 22 20.2
003A5480 2019-04-16 13:58:18 21.1 23 20.4
003A5480 2019-04-16 13:24:46 21 24 20.5
003A5480 2019-04-16 12:51:18 21 24 20.7
003A5480 2019-04-16 12:17:46 20.9 24 20.9
003A5480 2019-04-16 11:44:17 20.8 24 21.1
003A5480 2019-04-16 11:10:47 20.7 24 21.3
003A5480 2019-04-16 10:37:17 20.7 24 21.4
003A5480 2019-04-16 10:03:47 20.7 24 21.4
003A5480 2019-04-16 09:30:17 20.7 24 21.3
003A5480 2019-04-16 08:56:48 20.7 24 21.2
003A5480 2019-04-16 08:23:18 20.8 24 21.2
003A5480 2019-04-16 07:49:48 20.7 24 21.2
003A5480 2019-04-16 07:16:18 20.8 24 21.3
003A5480 2019-04-16 06:42:49 20.7 24 21
003A5480 2019-04-16 06:09:18 20.7 24 21.2
003A5480 2019-04-16 05:35:48 20.8 23 21.1
003A5480 2019-04-16 05:02:17 20.7 23 21
003A5480 2019-04-16 04:28:48 20.7 23 20.9
003A5480 2019-04-16 03:55:16 20.7 23 20.9
003A5480 2019-04-16 03:21:46 20.8 23 20.8
003A5480 2019-04-16 02:48:15 20.8 23 20.8
003A5480 2019-04-16 02:14:45 20.9 23 20.7
003A5480 2019-04-16 01:41:16 20.8 23 20.8
003A5480 2019-04-16 01:07:47 20.9 23 20.8
003A5480 2019-04-16 00:34:16 20.9 23 20.9
003A5480 2019-04-16 00:00:47 20.9 22 20.9
003A5480 2019-04-15 23:27:16 20.9 22 21
003A5480 2019-04-15 22:53:47 20.9 22 21.1
003A5480 2019-04-15 22:20:17 20.9 22 21.2
003A5480 2019-04-15 21:46:48 20.9 22 21.3
003A5480 2019-04-15 21:13:17 20.9 22 21.3
003A5480 2019-04-15 20:39:48 20.9 22 21.4
003A5480 2019-04-15 20:06:17 21 22 21.5
003A5480 2019-04-15 19:32:47 21.1 21 21.8
003A5480 2019-04-15 18:59:18 21.1 21 21.8
003A5480 2019-04-15 18:25:48 21.1 21 22
003A5480 2019-04-15 17:52:21 21.1 21 22.8
003A5480 2019-04-15 17:18:50 21.3 20 23
003A5480 2019-04-15 16:45:20 21.4 20 23
003A5480 2019-04-15 16:11:49 21.4 20 23
003A5480 2019-04-15 15:38:18 21.6 20 23.2
003A5480 2019-04-15 15:04:47 21.7 19 23.4
003A5480 2019-04-15 14:31:17 21.8 19 23.5
003A5480 2019-04-15 13:57:46 22 19 24.1
003A5480 2019-04-15 13:24:17 22 18 24.2
003A5480 2019-04-15 12:50:45 22.2 18 24.2
003A5480 2019-04-15 12:17:14 22.5 17 24.4
003A5480 2019-04-15 11:43:42 22.6 16 24.4
003A5480 2019-04-15 11:10:11 22.5 16 24.4
003A5480 2019-04-15 10:36:40 22.5 16 24.5
003A5480 2019-04-15 10:03:09 22.5 17 24.5
003A5480 2019-04-15 09:29:38 22.4 17 24.5
003A5480 2019-04-15 08:56:08 22.2 17 24.5
003A5480 2019-04-15 08:22:38 22.2 17 24.5
003A5480 2019-04-15 07:49:07 22.2 17 24.4
003A5480 2019-04-15 07:15:37 22 17 24.5
003A5480 2019-04-15 06:42:07 22 17 24.4
003A5480 2019-04-15 06:08:37 22 17 24.4
003A5480 2019-04-15 05:35:06 22 17 24.3
003A5480 2019-04-15 05:01:36 22 17 24.3
003A5480 2019-04-15 04:28:05 22 17 24.3
003A5480 2019-04-15 03:54:34 22 17 23.9
003A5480 2019-04-15 03:21:04 22 17 23.9
003A5480 2019-04-15 02:47:35 22 17 23.9
003A5480 2019-04-15 02:14:05 22 17 23.9
003A5480 2019-04-15 01:40:34 22 17 23.8
003A5480 2019-04-15 01:07:03 22 17 23.7
003A5480 2019-04-15 00:33:32 22 17 23.7
003A5480 2019-04-15 00:00:01 22 18 23.7
003A5480 2019-04-14 23:26:31 22 18 23.6
003A5480 2019-04-14 22:52:59 22 18 23.7
003A5480 2019-04-14 22:19:29 22 18 23.7
003A5480 2019-04-14 21:45:58 22.1 18 23.6
003A5480 2019-04-14 21:12:28 22.2 18 23.6
003A5480 2019-04-14 20:38:58 22.3 18 23.6
003A5480 2019-04-14 20:05:28 22.1 18 23.7
003A5480 2019-04-14 19:31:58 22.2 18 23.7
003A5480 2019-04-14 18:58:27 22.2 18 23.8
003A5480 2019-04-14 18:24:56 22.1 18 23.7
003A5480 2019-04-14 17:51:26 22.1 18 23.7
003A5480 2019-04-14 17:17:55 22 18 23.7
003A5480 2019-04-14 16:44:24 22.1 18 23.7
003A5480 2019-04-14 16:10:53 22.1 18 23.8
003A5480 2019-04-14 15:37:21 22.1 18 23.9
003A5480 2019-04-14 15:03:51 22.1 18 23.9
003A5480 2019-04-14 14:30:21 22.1 18 24.4
003A5480 2019-04-14 13:56:49 22.1 18 24.3
003A5480 2019-04-14 13:23:18 22.1 18 24.3
003A5480 2019-04-14 12:49:48 22.1 18 24.3
003A5480 2019-04-14 12:16:19 22.1 18 24.4
003A5480 2019-04-14 11:42:49 22.1 18 24.4
003A5480 2019-04-14 11:09:18 22.2 18 24.9
003A5480 2019-04-14 10:35:48 22.1 18 24.9
003A5480 2019-04-14 10:02:17 22.1 18 24.5
003A5480 2019-04-14 09:28:46 22.1 18 24.6
003A5480 2019-04-14 08:55:15 22.1 18 24.5
003A5480 2019-04-14 08:21:44 22.1 18 24.5
003A5480 2019-04-14 07:48:12 22.1 18 24.5
003A5480 2019-04-14 07:14:40 22 18 24.5
003A5480 2019-04-14 06:41:10 22.1 18 24.5
003A5480 2019-04-14 06:07:39 22.1 18 24.6
003A5480 2019-04-14 05:34:09 22.1 18 24.6
003A5480 2019-04-14 05:00:37 22.1 18 24.5
003A5480 2019-04-14 04:27:06 22.1 18 24.5
003A5480 2019-04-14 03:53:35 22.2 18 24.6
003A5480 2019-04-14 03:20:04 22.2 18 24.5
003A5480 2019-04-14 02:46:34 22.2 18 24.6
003A5480 2019-04-14 02:13:04 22.2 18 25
003A5480 2019-04-14 01:39:33 22.2 18 25
003A5480 2019-04-14 01:06:02 22.2 18 25
003A5480 2019-04-14 00:32:31 22.2 18 24.5
003A5480 2019-04-13 23:59:00 22.2 18 24.6
003A5480 2019-04-13 23:25:29 22.2 18 24.6
003A5480 2019-04-13 22:51:59 22.2 18 24.6
003A5480 2019-04-13 22:18:28 22.2 18 24.6
003A5480 2019-04-13 21:44:59 22.2 18 24.6
003A5480 2019-04-13 21:11:27 22.3 17 24.1
003A5480 2019-04-13 20:37:57 22.3 18 24.1
003A5480 2019-04-13 20:04:26 22.3 18 24.1
003A5480 2019-04-13 19:30:55 22.4 18 24.1
003A5480 2019-04-13 18:57:23 22.5 18 24.2
003A5480 2019-04-13 18:23:53 22.4 18 24.2
003A5480 2019-04-13 17:50:23 22.4 18 24.2
003A5480 2019-04-13 17:16:52 22.5 18 24.2
003A5480 2019-04-13 16:43:21 22.5 18 24.2
003A5480 2019-04-13 16:09:50 22.5 18 24.1
003A5480 2019-04-13 15:36:20 22.5 18 24.1
003A5480 2019-04-13 15:02:50 22.4 18 24.1
003A5480 2019-04-13 14:29:20 22.4 18 24.6
003A5480 2019-04-13 13:55:48 22.5 18 24.7
003A5480 2019-04-13 13:22:17 22.6 18 24.7
003A5480 2019-04-13 12:48:44 22.5 18 24.7
003A5480 2019-04-13 12:15:13 22.6 18 24.2
003A5480 2019-04-13 11:41:43 22.5 18 24.2
003A5480 2019-04-13 11:08:11 22.5 18 24.2
003A5480 2019-04-13 10:34:40 22.5 18 24.3
003A5480 2019-04-13 10:01:09 22.5 18 24.3
003A5480 2019-04-13 09:27:39 22.5 18 24.3
003A5480 2019-04-13 08:54:08 22.5 18 24.3
003A5480 2019-04-13 08:20:37 22.5 18 24.3
003A5480 2019-04-13 07:47:06 22.5 18 24.4
003A5480 2019-04-13 07:13:37 22.5 18 24.3
003A5480 2019-04-13 06:40:06 22.6 18 24.3
003A5480 2019-04-13 06:06:36 22.6 18 24.3
003A5480 2019-04-13 05:33:03 22.6 18 24.2
003A5480 2019-04-13 04:59:32 22.6 18 24.2
003A5480 2019-04-13 04:26:00 22.6 18 24.7
003A5480 2019-04-13 03:52:26 22.6 18 25.1
003A5480 2019-04-13 03:18:53 22.7 18 25.1
003A5480 2019-04-13 02:45:20 22.7 18 25
003A5480 2019-04-13 02:11:48 22.7 18 25.1
003A5480 2019-04-13 01:38:15 22.7 18 25.1
003A5480 2019-04-13 01:04:41 22.8 18 25.2
003A5480 2019-04-13 00:31:08 22.8 18 24.7
003A5480 2019-04-12 23:57:35 22.8 19 24.8
003A5480 2019-04-12 23:24:02 22.8 19 24.8
003A5480 2019-04-12 22:50:29 22.9 19 24.8
003A5480 2019-04-12 22:16:57 22.9 19 24.8
003A5480 2019-04-12 21:43:25 23.1 19 24.9
003A5480 2019-04-12 21:09:54 23.1 19 25
003A5480 2019-04-12 20:36:22 23 19 25.1
003A5480 2019-04-12 20:02:51 23.1 18 25.1
003A5480 2019-04-12 19:29:19 23.1 18 25.2
003A5480 2019-04-12 18:55:49 23 18 25.4
003A5480 2019-04-12 18:22:18 23.3 18 25.4
003A5480 2019-04-12 17:48:46 23.3 18 25.5
003A5480 2019-04-12 17:15:15 23.3 19 25.7
003A5480 2019-04-12 16:41:43 23.2 18 26.1
003A5480 2019-04-12 16:08:11 23 19 26.4
003A5480 2019-04-12 15:34:38 22.9 19 26.9
003A5480 2019-04-12 15:01:05 22.8 19 27.4
003A5480 2019-04-12 14:27:33 22.4 21 26
003A5480 2019-04-12 13:54:00 22 21 20.1
003A5480 2019-04-12 13:20:28 21.4 23 17.1